Miscellaneous Local Product
Issued by NWS Hastings, NE

Home | Current Version | Previous Version | Graphics & Text | Print | Product List | Glossary On
Versions: 1 2 3 4 5 6 7 8 9 10 11 12 13 14 15 16 17 18 19 20 21 22 23 24 25 26 27 28 29 30 31 32 33 34 35 36 37 38 39 40 41 42 43 44 45 46 47 48 49 50
326
AXUS43 KGID 122002
MISGRI

GID CWA HOURLY WEATHER ROUNDUP
NATIONAL WEATHER SERVICE HASTINGS NE
200 PM CST FRI FEB 12 2016

NOTE: "FAIR" INDICATES FEW OR NO CLOUDS BELOW 12,000 FEET WITH NO
SIGNIFICANT WEATHER AND/OR OBSTRUCTIONS TO VISIBILITY.

...SOUTH CENTRAL NEBRASKA...

CITY           SKY/WX    TMP DP  RH WIND       PRES   REMARKS
GRAND ISLAND   CLOUDY    25  19  78 NE13      30.49S WCI  14
HASTINGS       CLOUDY    26  23  88 NE17      30.46F FOG     WCI  13
KEARNEY        CLOUDY    28  25  86 NE14      30.46R WCI  17
ORD            CLOUDY    26  18  71 N9        30.47F WCI  17
YORK           CLOUDY    27  18  69 N14G20    30.50S WCI  15
AURORA         CLOUDY    24  21  86 N13       30.49S WCI  13
LEXINGTON      CLOUDY    34  28  79 NE12      30.44R WCI  25
HOLDREGE       CLOUDY    32  28  83 NE10      30.43F WCI  24
HEBRON         CLOUDY    29  24  82 NE10G16   30.49S WCI  20

...NEBRASKA PANHANDLE...

CITY           SKY/WX    TMP DP  RH WIND       PRES   REMARKS
CHADRON        CLOUDY    36  27  69 E5        30.36F WCI  32
ALLIANCE       CLOUDY    33  28  81 SE6       30.34F WCI  28
SCOTTSBLUFF    PTSUNNY   38  30  73 E12       30.33F WCI  30
SIDNEY         CLOUDY    35  31  85 E12       30.34F WCI  27

...WESTERN AND NORTH CENTRAL NEBRASKA...

CITY           SKY/WX    TMP DP  RH WIND       PRES   REMARKS
VALENTINE      CLOUDY    26  16  65 NE5       30.45F WCI  20
AINSWORTH      CLOUDY    26  17  68 N6        30.45F WCI  19
ONEILL         CLOUDY    22  15  74 N12       30.50F WCI  11
BROKEN BOW     CLOUDY    28  22  78 NE9       30.43F WCI  19
IMPERIAL       CLOUDY    34  30  85 E8        30.39F WCI  27
NORTH PLATTE   CLOUDY    35  27  72 NE8       30.41F WCI  29
MCCOOK         CLOUDY    37  31  78 NE7       30.41F WCI  32

...EASTERN NEBRASKA...

CITY           SKY/WX    TMP DP  RH WIND       PRES   REMARKS
NORFOLK        FLURRIES  21  12  68 N16       30.51F WCI   7
SO SIOUX CITY  SUNNY     19   5  54 N14       30.56S WCI   6
TEKAMAH        SUNNY     19  11  70 N21       30.55S WCI   3
COLUMBUS       CLOUDY    25   9  50 N14       30.52S WCI  13
ALBION         CLOUDY    24  14  67 N10G18    30.50S WCI  13
OMAHA EPPLEY   MOSUNNY   24  13  62 NW20      30.52S WCI  10
OFFUTT AFB     MOSUNNY   26  10  52 N13G25    30.52R WCI  14
MILLARD        SUNNY     25  11  56 N7G16     30.53S WCI  17
LINCOLN        MOSUNNY   27  15  61 N16       30.53S WCI  15
NEBRASKA CITY  MOSUNNY   29  13  52 N15       30.49S WCI  17
BEATRICE       CLOUDY    29  18  63 N15       30.50S WCI  18
FALLS CITY     MOSUNNY   33  16  49 N12G23    30.48S WCI  24

...NORTHERN KANSAS...

CITY           SKY/WX    TMP DP  RH WIND       PRES   REMARKS
GOODLAND       CLOUDY    39  33  79 E16       30.35F WCI  30
HILL CITY      CLOUDY    36  30  79 E10       30.43F WCI  28
NORTON         CLOUDY    36  27  69 NE7       30.41F WCI  30
PHILLIPSBURG   CLOUDY    37  28  70 CALM      30.45F
SMITH CENTER   CLOUDY    34  25  69 N6G16     30.46S WCI  29
BELOIT         CLOUDY    34  25  69 CALM      30.47F
HAYS           CLOUDY    37  21  52 NE10      30.43F WCI  30
RUSSELL        CLOUDY    34  27  75 NE12      30.43F WCI  25
CONCORDIA      CLOUDY    34  23  64 N10       30.46F WCI  26
SALINA         CLOUDY    38  24  57 N13       30.48F WCI  30
TOPEKA         MOSUNNY   39  20  46 N15G21    30.46S WCI  31



USA.gov is the U.S. government's official web portal to all federal, state and local government web resources and services.